NETSAT-4

Last updated on Thu Nov 21 2024 00:03:40 GMT+0000 (Coordinated Universal Time)

1 46504U 20068U 24324.85521653 .00019688 00000+0 87796-3 0 9996 2 46504 97.8252 286.9753 0008748 166.0967 194.0510 15.21415879227785
UTC large
Height (km)
Speed (km/s)
/
Latitude / Longitude
Inclination (degrees)
Orbital Period (minutes)
Azimuth
Elevation
Range (km)
Doppler Factor

Next 0 passes for location: London (51.5072 / 0.1276)

Sorry there are no passes over London.